EN

Hourly Weather Lago de Atitlán

Today, 24 July, Saturday

Time Temperature Precipitation Wind Pressure Humidity
00:00 +12°C° 0 mm 2 mps 592 mmHg 87%
01:00 +12°C° 0 mm 2 mps 591 mmHg 86%
02:00 +12°C° 0 mm 2 mps 591 mmHg 85%
03:00 +12°C° 0 mm 2 mps 591 mmHg 83%
04:00 +10°C° 0 mm 2 mps 591 mmHg 82%
05:00 +10°C° 0 mm 2 mps 591 mmHg 81%
06:00 +10°C° 0 mm 2 mps 591 mmHg 80%
07:00 +14°C° 0 mm 2 mps 592 mmHg 70%
08:00 +16°C° 0 mm 1 mps 593 mmHg 60%
09:00 +20°C° 0 mm 1 mps 594 mmHg 50%
10:00 +21°C° 0 mm 1 mps 595 mmHg 48%
11:00 +22°C° 0 mm 1 mps 595 mmHg 47%
12:00 +23°C° 0 mm 2 mps 595 mmHg 46%
13:00 +21°C° 0.1 mm 2 mps 594 mmHg 50%
14:00 +21°C° 0.1 mm 2 mps 594 mmHg 53%
15:00 +21°C° 0.1 mm 2 mps 593 mmHg 57%
16:00 +19°C° 0.4 mm 2 mps 593 mmHg 67%
17:00 +19°C° 0.4 mm 1 mps 592 mmHg 77%
18:00 +16°C° 0.4 mm 1 mps 592 mmHg 87%
19:00 +15°C° 0.3 mm 1 mps 592 mmHg 90%
20:00 +14°C° 0.3 mm 1 mps 592 mmHg 92%
21:00 +12°C° 0.3 mm 2 mps 591 mmHg 95%
22:00 +12°C° 0 mm 2 mps 591 mmHg 95%
23:00 +12°C° 0 mm 2 mps 591 mmHg 95%

Tomorrow, 25 July, Sunday

Time Temperature Precipitation Wind Pressure Humidity
00:00 +12°C° 0 mm 2 mps 591 mmHg 94%
01:00 +12°C° 0 mm 2 mps 590 mmHg 93%
02:00 +10°C° 0 mm 2 mps 590 mmHg 91%
03:00 +10°C° 0 mm 2 mps 590 mmHg 89%
04:00 +10°C° 0 mm 2 mps 590 mmHg 87%
05:00 +10°C° 0 mm 2 mps 590 mmHg 85%
06:00 +10°C° 0 mm 2 mps 590 mmHg 83%
07:00 +14°C° 0 mm 2 mps 591 mmHg 72%
08:00 +18°C° 0 mm 1 mps 592 mmHg 62%
09:00 +20°C° 0 mm 1 mps 593 mmHg 51%
10:00 +21°C° 0 mm 1 mps 593 mmHg 50%
11:00 +21°C° 0 mm 2 mps 593 mmHg 49%
12:00 +23°C° 0 mm 2 mps 594 mmHg 47%
13:00 +21°C° 0.3 mm 2 mps 593 mmHg 55%
14:00 +20°C° 0.3 mm 2 mps 592 mmHg 64%
15:00 +19°C° 0.3 mm 2 mps 592 mmHg 72%
16:00 +18°C° 0.4 mm 2 mps 591 mmHg 77%
17:00 +18°C° 0.4 mm 1 mps 591 mmHg 83%
18:00 +16°C° 0.4 mm 1 mps 591 mmHg 88%
19:00 +15°C° 0.5 mm 1 mps 591 mmHg 90%
20:00 +14°C° 0.5 mm 1 mps 591 mmHg 92%
21:00 +12°C° 0.5 mm 2 mps 591 mmHg 94%
22:00 +12°C° 0.2 mm 2 mps 591 mmHg 94%
23:00 +12°C° 0.2 mm 2 mps 590 mmHg 94%

Day after tomorrow, 26 July, Monday

Time Temperature Precipitation Wind Pressure Humidity
00:00 +10°C° 0.2 mm 2 mps 590 mmHg 94%
01:00 +10°C° 0 mm 2 mps 590 mmHg 93%
02:00 +10°C° 0 mm 2 mps 589 mmHg 92%
03:00 +10°C° 0 mm 2 mps 589 mmHg 90%
04:00 +10°C° 0 mm 2 mps 589 mmHg 87%
05:00 +9°C° 0 mm 2 mps 589 mmHg 84%
06:00 +9°C° 0 mm 2 mps 589 mmHg 81%
07:00 +13°C° 0 mm 2 mps 590 mmHg 72%
08:00 +16°C° 0 mm 1 mps 592 mmHg 63%
09:00 +20°C° 0 mm 1 mps 593 mmHg 54%
10:00 +21°C° 0 mm 1 mps 593 mmHg 52%
11:00 +21°C° 0 mm 2 mps 593 mmHg 50%
12:00 +23°C° 0 mm 2 mps 593 mmHg 48%
13:00 +21°C° 0.2 mm 2 mps 593 mmHg 55%
14:00 +20°C° 0.2 mm 2 mps 592 mmHg 63%
15:00 +19°C° 0.2 mm 2 mps 592 mmHg 70%
16:00 +18°C° 0.3 mm 2 mps 591 mmHg 76%
17:00 +18°C° 0.3 mm 1 mps 591 mmHg 82%
18:00 +16°C° 0.3 mm 1 mps 591 mmHg 88%
19:00 +15°C° 0.3 mm 1 mps 591 mmHg 90%
20:00 +14°C° 0.3 mm 1 mps 591 mmHg 92%
21:00 +13°C° 0.3 mm 1 mps 591 mmHg 94%
22:00 +13°C° 0.2 mm 2 mps 591 mmHg 94%
23:00 +12°C° 0.2 mm 2 mps 591 mmHg 94%

27 July, Tuesday

Time Temperature Precipitation Wind Pressure Humidity
00:00 +12°C° 0.2 mm 2 mps 591 mmHg 95%
01:00 +10°C° 0 mm 2 mps 590 mmHg 94%
02:00 +10°C° 0 mm 2 mps 590 mmHg 92%
03:00 +10°C° 0 mm 2 mps 589 mmHg 91%
04:00 +10°C° 0 mm 2 mps 589 mmHg 90%
05:00 +10°C° 0 mm 2 mps 590 mmHg 88%
06:00 +10°C° 0 mm 2 mps 590 mmHg 86%
07:00 +13°C° 0 mm 2 mps 591 mmHg 79%
08:00 +16°C° 0 mm 1 mps 592 mmHg 71%
09:00 +19°C° 0 mm 1 mps 593 mmHg 63%
10:00 +20°C° 0 mm 1 mps 593 mmHg 61%
11:00 +20°C° 0 mm 2 mps 593 mmHg 58%
12:00 +21°C° 0 mm 2 mps 593 mmHg 56%
13:00 +20°C° 0.7 mm 2 mps 593 mmHg 63%
14:00 +19°C° 0.7 mm 2 mps 592 mmHg 70%
15:00 +19°C° 0.7 mm 2 mps 592 mmHg 77%
16:00 +19°C° 0.9 mm 1 mps 591 mmHg 82%
17:00 +18°C° 0.9 mm 1 mps 591 mmHg 87%
18:00 +16°C° 0.9 mm 1 mps 591 mmHg 93%
19:00 +15°C° 0.5 mm 1 mps 591 mmHg 94%
20:00 +14°C° 0.5 mm 1 mps 591 mmHg 95%
21:00 +13°C° 0.5 mm 1 mps 591 mmHg 96%
22:00 +13°C° 0.5 mm 1 mps 591 mmHg 96%
23:00 +13°C° 0.5 mm 1 mps 591 mmHg 96%

28 July, Wednesday

Time Temperature Precipitation Wind Pressure Humidity
00:00 +13°C° 0.5 mm 1 mps 591 mmHg 96%
01:00 +13°C° 0.1 mm 1 mps 590 mmHg 96%
02:00 +12°C° 0.1 mm 1 mps 590 mmHg 96%
03:00 +12°C° 0.1 mm 1 mps 590 mmHg 96%
04:00 +12°C° 0 mm 1 mps 590 mmHg 95%
05:00 +12°C° 0 mm 2 mps 590 mmHg 94%
06:00 +12°C° 0 mm 2 mps 590 mmHg 94%
07:00 +14°C° 0 mm 1 mps 591 mmHg 85%
08:00 +16°C° 0 mm 1 mps 592 mmHg 76%
09:00 +19°C° 0 mm 1 mps 593 mmHg 67%
10:00 +19°C° 0.6 mm 1 mps 593 mmHg 70%
11:00 +20°C° 0.6 mm 1 mps 592 mmHg 73%
12:00 +19°C° 0.6 mm 2 mps 592 mmHg 77%
13:00 +19°C° 2.1 mm 1 mps 592 mmHg 80%
14:00 +19°C° 2.1 mm 1 mps 591 mmHg 84%
15:00 +19°C° 2.1 mm 1 mps 591 mmHg 88%
16:00 +18°C° 1.8 mm 1 mps 590 mmHg 91%
17:00 +16°C° 1.8 mm 1 mps 590 mmHg 94%
18:00 +15°C° 1.8 mm 1 mps 590 mmHg 97%
19:00 +15°C° 1.1 mm 1 mps 590 mmHg 97%
20:00 +14°C° 1.1 mm 1 mps 590 mmHg 97%
21:00 +14°C° 1.1 mm 1 mps 590 mmHg 97%
22:00 +13°C° 0.5 mm 1 mps 590 mmHg 96%
23:00 +13°C° 0.5 mm 1 mps 590 mmHg 96%

29 July, Thursday

Time Temperature Precipitation Wind Pressure Humidity
00:00 +13°C° 0.5 mm 1 mps 590 mmHg 96%
01:00 +13°C° 0.1 mm 1 mps 590 mmHg 95%
02:00 +13°C° 0.1 mm 1 mps 589 mmHg 95%
03:00 +13°C° 0.1 mm 2 mps 589 mmHg 95%
04:00 +12°C° 0 mm 2 mps 589 mmHg 94%
05:00 +12°C° 0 mm 2 mps 589 mmHg 94%
06:00 +12°C° 0 mm 2 mps 589 mmHg 93%
07:00 +14°C° 0 mm 1 mps 590 mmHg 85%
08:00 +16°C° 0 mm 1 mps 591 mmHg 77%
09:00 +19°C° 0 mm 1 mps 592 mmHg 69%
10:00 +19°C° 0.5 mm 1 mps 592 mmHg 74%
11:00 +19°C° 0.5 mm 1 mps 592 mmHg 79%
12:00 +18°C° 0.5 mm 2 mps 592 mmHg 84%
13:00 +19°C° 1.3 mm 1 mps 591 mmHg 86%
14:00 +18°C° 1.3 mm 1 mps 591 mmHg 89%
15:00 +18°C° 1.3 mm 1 mps 590 mmHg 91%
16:00 +16°C° 1.5 mm 1 mps 590 mmHg 93%
17:00 +16°C° 1.5 mm 1 mps 590 mmHg 95%
18:00 +15°C° 1.5 mm 1 mps 590 mmHg 97%
19:00 +15°C° 3.9 mm 1 mps 590 mmHg 98%
20:00 +14°C° 3.9 mm 1 mps 590 mmHg 98%
21:00 +14°C° 3.9 mm 1 mps 591 mmHg 98%
22:00 +14°C° 1.2 mm 1 mps 591 mmHg 98%
23:00 +14°C° 1.2 mm 1 mps 591 mmHg 98%
Show more